Location: Gwatt
(46.7204°N, 7.6223°E)
Time: 15:23:20
(UTC+00:00)

Transit 4A - Visible Passes

Search period start: 23 January 2021 00:00
Search period end: 02 February 2021 00:00
Orbit: 864 x 980 km, 66.8° (Epoch: 23 January)

Date Brightness Start Highest point End Pass type
(mag) Time Alt. Az. Time Alt. Az. Time Alt. Az.
23 Jan 9.1 04:18:24 28° S 04:18:24 28° S 04:21:16 10° S visible
23 Jan 9.0 17:33:35 10° SSE 17:38:44 26° ESE 17:41:37 19° ENE visible
23 Jan 8.2 19:18:15 10° SW 19:24:38 68° NW 19:25:11 64° NNW visible
23 Jan 10.5 21:07:31 10° WNW 21:08:45 14° WNW 21:08:45 14° WNW visible
24 Jan 9.6 04:28:37 17° SSW 04:28:37 17° SSW 04:29:59 10° S visible
24 Jan 8.5 17:42:02 10° S 17:47:49 37° ESE 17:51:35 20° ENE visible
24 Jan 8.7 19:27:52 10° SW 19:34:05 50° NW 19:35:09 46° NNW visible
24 Jan 10.7 21:17:56 10° WNW 21:18:42 12° WNW 21:18:42 12° WNW visible
25 Jan 8.2 17:50:49 10° S 17:57:00 53° ESE 18:01:26 19° NE visible
25 Jan 9.1 19:37:41 10° WSW 19:43:37 38° NW 19:44:59 34° NNW visible
25 Jan 10.8 21:28:27 10° NW 21:28:33 10° NW 21:28:33 10° NW visible
26 Jan 7.9 17:59:51 10° SSW 18:06:15 74° ESE 18:11:11 18° NE visible
26 Jan 9.5 19:47:41 10° W 19:53:13 30° NW 19:54:44 27° NNW visible
27 Jan 8.0 18:09:08 10° SW 18:15:34 82° NW 18:20:50 16° NNE visible
27 Jan 9.8 19:57:51 10° W 20:02:55 24° NW 20:04:23 22° NNW visible
28 Jan 8.4 18:18:37 10° SW 18:24:57 61° NW 18:30:24 14° NNE visible
28 Jan 10.0 20:08:11 10° WNW 20:12:40 19° NNW 20:13:56 18° NNW visible
29 Jan 8.9 18:28:19 10° WSW 18:34:26 45° NW 18:39:53 13° NNE visible
29 Jan 10.2 20:18:39 10° WNW 20:22:30 16° NNW 20:23:25 16° NNW visible
30 Jan 8.2 16:50:58 10° SSW 16:57:14 60° ESE 17:03:30 10° NE visible
30 Jan 9.3 18:38:11 10° WSW 18:43:59 35° NW 18:49:18 12° NNE visible
30 Jan 10.3 20:29:11 10° NW 20:32:25 14° NNW 20:32:50 14° NNW visible
31 Jan 8.1 17:00:06 10° SSW 17:06:31 83° ESE 17:12:54 10° NE visible
31 Jan 9.7 18:48:15 10° W 18:53:38 27° NW 18:58:40 11° NNE visible
31 Jan 10.4 20:39:45 10° NW 20:42:11 12° NNW 20:42:11 12° NNW visible
01 Feb 8.3 17:09:27 10° SW 17:15:52 74° NW 17:22:14 10° NNE visible
01 Feb 9.9 18:58:29 10° W 19:03:20 22° NNW 19:07:59 11° NNE visible
01 Feb 10.5 20:50:12 10° NNW 20:51:30 11° NNW 20:51:30 11° NNW visible
